This demonstration page uses our WeatherBlox Daily Observations layout. Learn more.

Left ArrowRight Arrow

47.50024, -111.30081

Hourly Observations for January 12, 2018

Temp ( °F °C ) Dew Point ( °F °C ) Humidity (%) Winds ( mph kmh ) Pressure ( in mb ) Visibility ( mi km ) Precip ( " mm )
12:53 am 00:53 Cloudy with Light Snow -4 -20 -10 -23.3 75 75 NNE 5 7 30.36 1028 2 2 0.02 0.51
1:13 am 01:13 Cloudy with Light Snow -5 -20.6 -10 -23.3 79 79 NE 6 9 30.53 1034 3 4 0.01 0.25
1:53 am 01:53 Cloudy with Light Snow -5 -20.6 -10 -23.3 79 79 NE 6 9 30.40 1029 2 3 0.01 0.25
2:04 am 02:04 Cloudy with Light Snow -5 -20.6 -10 -23.3 79 79 NE 5 7 30.59 1036 2 3 0.01 0.25
2:24 am 02:24 Cloudy with Light Snow -5 -20.6 -10 -23.3 79 79 ENE 3 6 30.59 1036 3 4 0.01 0.25
2:28 am 02:28 Cloudy with Light Snow -5 -20.6 -10 -23.3 79 79 ENE 3 6 30.59 1036 3 5 0.01 0.25
2:53 am 02:53 Cloudy -5 -20.6 -10 -23.3 79 79 E 3 6 30.43 1031 10 16 0.01 0.25
3:07 am 03:07 Mostly Cloudy with Light Snow -5 -20.6 -10 -23.3 79 79 Calm 30.62 1037 5 8 0.00 0.03
3:38 am 03:38 Cloudy with Haze -5 -20.6 -10 -23.3 79 79 NNE 5 7 30.62 1037 5 8 0.00 0.03
3:48 am 03:48 Mostly Cloudy -6 -21 -9 -23 84 84 NNE 3 6 30.62 1037 10 16 0.00 0.03
3:53 am 03:53 Partly Cloudy -6 -21.1 -11 -23.9 78 78 NE 3 6 30.47 1032 10 16 0.00 0.03
4:36 am 04:36 Mostly Cloudy with Haze -6 -21.1 -11 -23.9 78 78 E 3 6 30.62 1037 3 5 0.00 0.00
4:43 am 04:43 Partly Cloudy -6 -21.1 -11 -23.9 78 78 E 3 6 30.62 1037 8 13 0.00 0.00
4:53 am 04:53 Mostly Cloudy -6 -21.1 -10 -23.3 83 83 ESE 3 6 30.49 1032 10 16 0.00 0.00
5:20 am 05:20 Cloudy -5 -20.6 -10 -23.3 79 79 ESE 3 6 30.62 1037 9 14 0.00 0.00
5:53 am 05:53 Cloudy -5 -20.6 -10 -23.3 79 79 SE 5 7 30.49 1033 9 14 0.00 0.00
6:53 am 06:53 Cloudy -4 -20 -9 -22.8 79 79 SE 3 6 30.48 1032 10 16 0.00 0.00
7:53 am 07:53 Cloudy -3 -19.4 -10 -23.3 71 71 Calm 30.49 1032 10 16 0.00 0.00
8:53 am 08:53 Mostly Cloudy -4 -20 -9 -22.8 79 79 ENE 6 9 30.51 1033 10 16 0.00 0.00
9:53 am 09:53 Partly Cloudy -5 -20.6 -10 -23.3 79 79 NNE 7 11 30.58 1035 10 16 0.00 0.00
10:53 am 10:53 Sunny -1 -18.3 -7 -21.7 75 75 ESE 6 9 30.56 1035 10 16 0.00 0.00
11:53 am 11:53 Mostly Cloudy 1 -17.2 -7 -21.7 68 68 N 3 6 30.57 1035 10 16 0.00 0.00
12:53 pm 12:53 Mostly Cloudy 2 -16.7 -5 -20.6 72 72 ENE 6 9 30.55 1035 10 16 0.00 0.00
1:53 pm 13:53 Mostly Sunny 1 -17.2 -6 -21.1 72 72 E 8 13 30.55 1034 10 16 0.00 0.00
2:53 pm 14:53 Sunny 0 -17.8 -6 -21.1 76 76 ESE 7 11 30.54 1034 10 16 0.00 0.00
3:53 pm 15:53 Sunny 0 -17.8 -7 -21.7 72 72 ESE 6 9 30.55 1035 10 16 0.00 0.00
4:53 pm 16:53 Sunny 0 -17.8 -6 -21.1 76 76 E 5 7 30.55 1035 10 16 0.00 0.00
5:53 pm 17:53 Clear 0 -17.8 -5 -20.6 79 79 ESE 3 6 30.56 1035 10 16 0.00 0.00
6:53 pm 18:53 Clear 0 -17.8 -5 -20.6 79 79 ESE 5 7 30.55 1035 10 16 0.00 0.00
7:53 pm 19:53 Cloudy 1 -17.2 -4 -20 79 79 Calm 30.53 1034 10 16 0.00 0.00
8:53 pm 20:53 Cloudy 2 -16.7 -4 -20 76 76 W 6 9 30.51 1033 10 16 0.00 0.00
9:53 pm 21:53 Cloudy 3 -16.1 -4 -20 72 72 Calm 30.50 1033 10 16 0.00 0.00
10:53 pm 22:53 Cloudy 4 -15.6 -2 -18.9 76 76 Calm 30.47 1032 10 16 0.00 0.00
11:53 pm 23:53 Cloudy 6 -14.4 1 -17.2 79 79 WNW 6 9 30.44 1031 10 16 0.00 0.00

Powered by AerisWeather